Weather History for Pittsburgh Allegheny Co., PA

Change the Weather History Date:

Saturday, January 5, 2013

  Actual Average Record
Temperature  
Mean Temperature 30 °F -  
Max Temperature 34 °F 50 °F 68 °F (1993)
Min Temperature 25 °F 29 °F 1 °F (1988)
Degree Days  
Heating Degree Days 36    
Moisture  
Dew Point 20 °F    
Average Humidity 68    
Maximum Humidity 75    
Minimum Humidity 61    
Precipitation  
Precipitation 0.21 in - - ()
Sea Level Pressure  
Sea Level Pressure 30.30 in    
Wind  
Wind Speed 10 mph (SW)    
Max Wind Speed 16 mph    
Max Gust Speed 23 mph    
Visibility 10 miles    
Events      
Averages and records for this station are not official NWS values.
T = Trace of Precipitation, MM = Missing Value Source: NWS Daily Summary

Daily Weather History Graph

Daily Weather History Graph

Search for Another Location

Airport:

Trip Planner

Search our weather history database for the weather conditions in past years. The results will help you decide how hot, cold, wet, or windy it might be!

Date:

Astronomy

Jan. 05, 2013 Rise Set
Actual Time 7:42 AM EST 5:07 PM EST
Civil Twilight 7:12 AM EST 5:38 PM EST
Nautical Twilight 6:38 AM EST 6:12 PM EST
Astronomical Twilight 6:05 AM EST 6:45 PM EST
Moon 12:46 AM EST (1/5) 11:57 AM EST (1/5)
Length of Visible Light 10h 26m
Length of Day
9h 25m
Last Quarter, 44% of the Moon is Illuminated
Jan 5
Last Quarter
Jan 11
New
Jan 18
First Quarter
Jan 26
Full
Feb 3
Last Quarter

Hourly Weather History & Observations

Time (EST) Temp. Windchill Dew Point Humidity Pressure Visibility Wind Dir Wind Speed Gust Speed Precip Events Conditions
12:53 AM 26.1 °F 14.0 °F 16.0 °F 66% 30.28 in 10.0 mi WSW 15.0 mph - N/A   Clear
1:53 AM 26.1 °F 13.6 °F 16.0 °F 66% 30.30 in 10.0 mi West 16.1 mph - N/A   Clear
2:53 AM 25.0 °F 13.1 °F 17.1 °F 72% 30.32 in 10.0 mi WSW 13.8 mph - N/A   Clear
3:12 AM 26.6 °F 15.2 °F 17.6 °F 69% 30.26 in 10.0 mi WSW 13.8 mph - N/A   Mostly Cloudy
3:53 AM 26.1 °F 14.0 °F 17.1 °F 69% 30.33 in 10.0 mi West 15.0 mph - N/A   Overcast
4:53 AM 26.6 °F 15.7 °F 17.6 °F 69% 30.28 in 10.0 mi West 12.7 mph 23.0 mph N/A   Overcast
5:53 AM 26.6 °F 16.8 °F 19.4 °F 74% 30.30 in 10.0 mi West 10.4 mph - N/A   Overcast
6:53 AM 26.1 °F 18.4 °F 19.0 °F 75% 30.37 in 10.0 mi West 6.9 mph - N/A   Overcast
7:53 AM 26.1 °F 19.4 °F 19.0 °F 75% 30.39 in 10.0 mi SW 5.8 mph - N/A   Overcast
8:53 AM 26.1 °F 18.4 °F 19.0 °F 75% 30.41 in 10.0 mi SSW 6.9 mph - N/A   Overcast
9:53 AM 27.0 °F 20.5 °F 19.9 °F 75% 30.42 in 10.0 mi SSW 5.8 mph - N/A   Overcast
10:53 AM 28.0 °F 21.7 °F 21.0 °F 75% 30.40 in 10.0 mi Variable 5.8 mph - N/A   Overcast
11:40 AM 28.4 °F 20.4 °F 21.2 °F 74% 30.31 in 10.0 mi SW 8.1 mph - N/A   Scattered Clouds
11:53 AM 28.9 °F 21.9 °F 21.0 °F 72% 30.37 in 10.0 mi WSW 6.9 mph - N/A   Partly Cloudy
12:53 PM 30.9 °F 26.2 °F 21.9 °F 69% 30.32 in 10.0 mi SW 4.6 mph - 0.02 in   Clear
1:53 PM 33.1 °F 26.1 °F 21.9 °F 64% 30.30 in 10.0 mi SW 8.1 mph - 0.06 in   Clear
2:53 PM 34.0 °F 27.2 °F 21.9 °F 61% 30.29 in 10.0 mi SW 8.1 mph - 0.07 in   Clear
3:53 PM 34.0 °F 28.8 °F 21.9 °F 61% 30.27 in 10.0 mi South 5.8 mph - 0.04 in   Clear
4:53 PM 33.1 °F 27.7 °F 21.9 °F 64% 30.26 in 10.0 mi South 5.8 mph - 0.02 in   Clear
5:53 PM 33.1 °F 30.0 °F 21.9 °F 64% 30.25 in 10.0 mi South 3.5 mph - N/A   Partly Cloudy
6:53 PM 33.1 °F 26.9 °F 21.9 °F 64% 30.23 in 10.0 mi South 6.9 mph - N/A   Overcast
7:53 PM 33.1 °F 26.1 °F 21.9 °F 64% 30.22 in 10.0 mi South 8.1 mph - N/A   Mostly Cloudy
8:53 PM 33.1 °F 28.7 °F 23.0 °F 66% 30.22 in 10.0 mi SW 4.6 mph - N/A   Overcast
9:53 PM 33.1 °F 27.7 °F 23.0 °F 66% 30.21 in 10.0 mi South 5.8 mph - N/A   Overcast
10:53 PM 33.1 °F 26.9 °F 23.0 °F 66% 30.19 in 10.0 mi SSW 6.9 mph - N/A   Overcast
11:53 PM 33.1 °F 26.9 °F 23.0 °F 66% 30.17 in 10.0 mi South 6.9 mph - N/A   Overcast